Home > Weather > Achern > Past weeks

Flag for Germany Past Weather in Achern, Baden-Württemberg, Germany — Yesterday and Last 2 Weeks

Now
68 °F

Thunderstorms. Passing clouds.


Feels Like: 68 °F
Forecast: 54 / 69 °F
Wind: 2 mph from North

Location: Karlsruhe - Baden Wurttemberg

Current Time: Jun 25, 2016 at 3:42:28 AM

Latest Report: Jun 25, 2016 at 2:50 AM


Visibility: N/A

Pressure: 29.98 "Hg

Humidity: 88%

Dew Point: 64 °F

Location of AchernLocation

Past Weather in Achern — Graph

°F

Achern Temperature Yesterday

Maximum temperature yesterday: 91 °F (at 4:20 PM)
Minimum temperature yesterday: 68 °F (at 5:50 AM)
Average temperature yesterday: 81 °F

High & Low Weather Summary for the Past Weeks

 TemperatureHumidityPressure
High91 °F (Jun 23, 4:20 PM)100% (Jun 11, 9:50 PM)30.27 "Hg (Jun 11, 9:50 PM)
Low50 °F (Jun 20, 4:50 AM)38% (Jun 23, 5:50 PM)29.56 "Hg (Jun 14, 11:50 AM)
Average65 °F79%29.91 "Hg
* Reported Jun 9 11:20 PM — Jun 24 11:20 PM, Achern, Weather by CustomWeather, © 2016

Note: Actual official high and low records may vary slightly from our data, if they occured in-between our weather recording intervals... More about our weather records

Advertising

Achern Weather History for the Previous 24 Hours

Scroll right to see more
 ConditionsComfort  
Time TempWeatherWind HumidityBarometerVisibility
11:20 PM
Fri, Jun 24
75 °FPassing clouds.8 mph83%29.98 "HgN/A
10:50 PM75 °FPassing clouds.3 mph83%29.98 "HgN/A
10:20 PM75 °FScattered clouds.5 mph83%29.98 "HgN/A
9:50 PM77 °FSunny.2 mph79%29.98 "Hg10 mi
9:20 PM79 °FSunny.2 mph74%29.98 "Hg10 mi
8:50 PM81 °FSunny.2 mph70%29.98 "Hg10 mi
8:20 PM81 °FSunny.2 mph66%29.98 "Hg10 mi
7:50 PM79 °FSunny.2 mph70%29.98 "Hg10 mi
7:20 PM81 °FPassing clouds.3 mph66%29.98 "HgN/A
6:50 PM81 °FPassing clouds.3 mph66%29.98 "HgN/A
6:20 PM82 °FPassing clouds.6 mph62%29.98 "HgN/A
5:50 PM84 °FPassing clouds.8 mph58%29.98 "HgN/A
5:20 PM88 °FPassing clouds.7 mph55%29.98 "HgN/A
4:50 PM90 °FSunny.2 mph46%29.98 "Hg10 mi
4:20 PM91 °FPassing clouds.5 mph46%29.98 "HgN/A
3:50 PM90 °FPassing clouds.5 mph49%29.98 "HgN/A
3:20 PM90 °FPassing clouds.6 mph49%30.01 "HgN/A
2:50 PM90 °FPassing clouds.6 mph46%30.01 "HgN/A
2:20 PM88 °FSunny.6 mph46%30.01 "Hg10 mi
1:50 PM88 °FPassing clouds.6 mph43%30.01 "HgN/A
1:20 PM88 °FPassing clouds.8 mph43%30.04 "HgN/A
12:50 PM86 °FPassing clouds.9 mph43%30.04 "HgN/A
12:20 PM86 °FPassing clouds.8 mph46%30.04 "HgN/A
11:50 AM86 °FPassing clouds.8 mph46%30.04 "HgN/A
11:20 AM84 °FPassing clouds.9 mph48%30.04 "HgN/A
10:50 AM84 °FSunny.12 mph51%30.04 "Hg10 mi
10:20 AM82 °FSunny.12 mph58%30.04 "Hg10 mi
9:50 AM79 °FSunny.8 mph65%30.04 "Hg10 mi
9:20 AM81 °FPassing clouds.8 mph66%30.04 "HgN/A
8:50 AM79 °FPassing clouds.6 mph74%30.04 "HgN/A
8:20 AM77 °FPassing clouds.5 mph79%30.04 "HgN/A
7:50 AM75 °FPassing clouds.6 mph78%30.04 "HgN/A
7:20 AM73 °FSunny.2 mph83%30.04 "Hg10 mi
6:50 AM72 °FPassing clouds.6 mph83%30.01 "HgN/A
6:20 AM70 °FPassing clouds.6 mph88%30.04 "HgN/A
5:50 AM68 °FClear.5 mph94%30.04 "Hg10 mi
5:20 AM70 °FClear.2 mph94%30.04 "Hg10 mi
4:50 AM72 °FClear.3 mph88%30.04 "Hg10 mi
Weather by CustomWeather, © 2016

See weather overviewHow to use our weather pages